{"data":{"norad_id":50480,"epoch":"2026-05-25T02:15:24.084000Z","epoch_age_seconds":67702,"freshness":"FRESH","line1":"1 50480U 21132M   26145.09402875 -.00000067  00000+0 -20271-3 0  9998","line2":"2 50480  87.9170 340.0398 0001714  93.2489 266.8839 13.18687841218567","mean_motion":13.18687841,"eccentricity":0.0001714,"inclination_deg":87.917,"raan_deg":340.0398,"arg_perigee_deg":93.2489,"mean_anomaly_deg":266.8839,"bstar":-0.00020271,"rev_number":21856,"period_min":109.19945988946,"perigee_km":1188.4389498174,"apogee_km":1191.0332167104,"semimajor_km":7567.8730832639,"source":"CELESTRAK","updated_at":"2026-05-25T13:38:22.530256Z"}}